Cairns, Australia

10:40 PM AEST on January 19, 2018 (GMT +1000)
Cairns International

Weather History for YBCS - September, 2013

Change the Weather History Date:

Tuesday, September 3, 2013

  Actual Average Record
Temperature  
Mean Temperature 72 °F -  
Max Temperature 78 °F 82 °F 87 °F (2000)
Min Temperature 66 °F 66 °F 41 °F (2006)
Cooling Degree Days 7    
Growing Degree Days 22 (Base 50)    
Moisture  
Dew Point 62 °F    
Average Humidity 70    
Maximum Humidity 94    
Minimum Humidity 45    
Precipitation  
Precipitation 0.12 in 0.05 in - ()
Sea Level Pressure  
Sea Level Pressure 30.12 in    
Wind  
Wind Speed 19 mph ()    
Max Wind Speed 26 mph    
Max Gust Speed 36 mph    
Visibility 6.1 miles    
Events Rain    
Averages and records for this station are not official NWS values.
T = Trace of Precipitation, MM = Missing Value Source: Averaged Metar Reports

Daily Weather History Graph

Daily Weather History Graph

Search for Another Location

Airport or City:

Trip Planner

Search our weather history database for the weather conditions in past years. The results will help you decide how hot, cold, wet, or windy it might be!

Date:

Astronomy

Sep. 03, 2013 Rise Set
Actual Time 6:22 AM AEST 6:10 PM AEST
Civil Twilight 6:00 AM AEST 6:32 PM AEST
Nautical Twilight 5:35 AM AEST 6:57 PM AEST
Astronomical Twilight 5:10 AM AEST 7:22 PM AEST
Moon 4:26 AM AEST (9/3) 4:16 PM AEST (9/3)
Length of Visible Light 12h 31m
Length of Day
11h 48m
Waning Crescent, 6% of the Moon is Illuminated
Sep 3
Waning Crescent
Sep 5
New
Sep 13
First Quarter
Sep 19
Full
Sep 27
Last Quarter

Hourly Weather History & Observations

Time (AEST) Temp. Dew Point Humidity Pressure Visibility Wind Dir Wind Speed Gust Speed Precip Events Conditions
12:00 AM 73 °F 61 °F 57% 30.12 in - SE 21.9 mph - -  
12:00 AM 73.4 °F 60.8 °F 65% 30.12 in 6.2 mi SE 21.9 mph - N/A   Scattered Clouds
12:30 AM 73.4 °F 59.0 °F 61% 30.09 in 6.2 mi SE 21.9 mph - N/A   Scattered Clouds
1:00 AM 73 °F 59 °F 52% 30.12 in - SE 26.5 mph - -  
1:00 AM 73.4 °F 59.0 °F 61% 30.09 in 6.2 mi SE 26.5 mph - N/A   Scattered Clouds
1:24 AM 73.4 °F 59.0 °F 61% 30.09 in 6.2 mi SE 24.2 mph 35.7 mph N/A   Scattered Clouds
1:30 AM 73.4 °F 59.0 °F 61% 30.09 in 6.2 mi SE 25.3 mph - N/A   Mostly Cloudy
2:00 AM 73.4 °F 59.0 °F 61% 30.09 in 6.2 mi SE 24.2 mph - N/A   Mostly Cloudy
2:30 AM 71.6 °F 57.2 °F 60% 30.09 in 6.2 mi SE 21.9 mph - N/A   Partly Cloudy
3:00 AM 72 °F 57 °F 49% 30.09 in - SE 21.9 mph - -  
3:00 AM 71.6 °F 57.2 °F 60% 30.09 in 6.2 mi SE 21.9 mph - N/A   Scattered Clouds
3:30 AM 69.8 °F 59.0 °F 68% 30.06 in 6.2 mi SE 20.7 mph - N/A   Mostly Cloudy
4:00 AM 72 °F 55 °F 45% 30.09 in - SE 19.6 mph - -  
4:00 AM 71.6 °F 55.4 °F 57% 30.06 in 6.2 mi SE 19.6 mph - N/A   Mostly Cloudy
4:30 AM 71.6 °F 57.2 °F 60% 30.09 in 6.2 mi SSE 18.4 mph - N/A   Mostly Cloudy
5:00 AM 69.8 °F 62.6 °F 78% 30.09 in 6.2 mi SSE 18.4 mph - N/A   Scattered Clouds
5:30 AM 69.8 °F 57.2 °F 64% 30.09 in 6.2 mi SSE 17.3 mph - N/A   Partly Cloudy
6:00 AM 69.8 °F 57.2 °F 64% 30.09 in 6.2 mi SSE 10.4 mph - N/A   Scattered Clouds
6:20 AM 69.8 °F 60.8 °F 73% 30.09 in 6.2 mi SSE 17.3 mph - N/A Rain Light Rain Showers
6:30 AM 69.8 °F 62.6 °F 78% 30.12 in 6.2 mi ESE 21.9 mph - N/A Rain Light Rain Showers
7:00 AM 68.0 °F 62.6 °F 83% 30.12 in 5.6 mi SSE 16.1 mph 29.9 mph N/A Rain Light Rain Showers
7:06 AM 68.0 °F 62.6 °F 83% 30.12 in 3.7 mi ESE 24.2 mph - N/A Rain Light Rain Showers
7:30 AM 68.0 °F 62.6 °F 83% 30.15 in 3.1 mi SE 20.7 mph - N/A Rain Light Rain Showers
8:00 AM 66.2 °F 64.4 °F 94% 30.15 in 6.2 mi SE 16.1 mph - N/A   Mostly Cloudy
8:30 AM 69.8 °F 64.4 °F 83% 30.15 in 6.2 mi South 11.5 mph - N/A   Mostly Cloudy
9:00 AM 75 °F 62 °F 54% 30.17 in 19 mi SE 19.6 mph - -   Partly Cloudy
9:00 AM 75.2 °F 62.6 °F 65% 30.15 in 6.2 mi SE 19.6 mph - N/A   Scattered Clouds
9:30 AM 71.6 °F 64.4 °F 78% 30.18 in 6.2 mi SSE 19.6 mph - N/A   Scattered Clouds
10:00 AM 75 °F 59 °F 48% 30.19 in - SSE 19.6 mph - -  
10:00 AM 75.2 °F 59.0 °F 57% 30.18 in 6.2 mi SSE 19.6 mph - N/A   Scattered Clouds
10:30 AM 71.6 °F 64.4 °F 78% 30.18 in 6.2 mi SE 23.0 mph - N/A   Mostly Cloudy
11:00 AM 77.0 °F 64.4 °F 65% 30.18 in 5.0 mi SSE 21.9 mph - N/A   Mostly Cloudy
11:15 AM 71.6 °F 64.4 °F 78% 30.15 in 3.7 mi SE 23.0 mph - N/A Rain Light Rain Showers
11:21 AM 69.8 °F 66.2 °F 88% 30.15 in 2.5 mi SE 24.2 mph - N/A Rain Light Rain Showers
11:30 AM 69.8 °F 66.2 °F 88% 30.18 in 3.1 mi SE 21.9 mph - N/A Rain Light Rain Showers
11:43 AM 69.8 °F 62.6 °F 78% 30.15 in 6.2 mi SSE 20.7 mph 32.2 mph N/A   Mostly Cloudy
12:00 PM 71.6 °F 66.2 °F 83% 30.15 in 6.2 mi SSE 18.4 mph - N/A   Mostly Cloudy
12:30 PM 73.4 °F 64.4 °F 73% 30.12 in 6.2 mi SSE 15.0 mph - N/A   Mostly Cloudy
1:00 PM 75 °F 67 °F 69% 30.14 in - SSE 15.0 mph - -  
1:00 PM 75.2 °F 66.2 °F 73% 30.12 in 6.2 mi SSE 15.0 mph - N/A   Scattered Clouds
1:30 PM 75.2 °F 64.4 °F 69% 30.09 in 6.2 mi SE 21.9 mph - N/A   Scattered Clouds
2:00 PM 78.8 °F 62.6 °F 57% 30.09 in 6.2 mi SSE 24.2 mph - N/A   Scattered Clouds
2:30 PM 78.8 °F 60.8 °F 54% 30.09 in 6.2 mi SE 21.9 mph - N/A   Partly Cloudy
3:00 PM 78.8 °F 57.2 °F 47% 30.09 in 6.2 mi SE 23.0 mph - N/A   Partly Cloudy
3:30 PM 78.8 °F 62.6 °F 57% 30.06 in 6.2 mi SE 24.2 mph - N/A   Scattered Clouds
3:55 PM 75.2 °F 62.6 °F 65% 30.06 in 6.2 mi SE 23.0 mph 34.5 mph N/A   Mostly Cloudy
4:03 PM 73.4 °F 64.4 °F 73% 30.09 in 6.2 mi SE 24.2 mph 35.7 mph N/A Rain Light Rain Showers
4:30 PM 75.2 °F 62.6 °F 65% 30.09 in 6.2 mi SE 24.2 mph - N/A   Mostly Cloudy
5:00 PM 75.2 °F 60.8 °F 61% 30.09 in 6.2 mi SSE 23.0 mph - N/A   Mostly Cloudy
5:30 PM 73.4 °F 60.8 °F 65% 30.09 in 6.2 mi SE 19.6 mph - N/A   Mostly Cloudy
6:00 PM 74 °F 61 °F 55% 30.12 in - SSE 21.9 mph - -   Overcast
6:00 PM 73.4 °F 60.8 °F 65% 30.09 in 6.2 mi SSE 21.9 mph - N/A   Scattered Clouds
6:30 PM 73.4 °F 60.8 °F 65% 30.12 in 6.2 mi SSE 17.3 mph 29.9 mph N/A   Scattered Clouds
7:00 PM 73 °F 62 °F 60% 30.13 in - SSE 16.1 mph - -  
7:00 PM 73.4 °F 62.6 °F 69% 30.12 in 6.2 mi SSE 16.1 mph - N/A Rain Light Rain Showers
7:17 PM 73.4 °F 62.6 °F 69% 30.12 in 6.2 mi SSE 17.3 mph 31.1 mph N/A Rain Light Rain Showers
7:30 PM 73.4 °F 62.6 °F 69% 30.12 in 6.2 mi SSE 25.3 mph - N/A Rain Light Rain Showers
7:39 PM 73.4 °F 62.6 °F 69% 30.12 in 6.2 mi SSE 24.2 mph 35.7 mph N/A Rain Light Rain Showers
8:00 PM 71.6 °F 62.6 °F 73% 30.12 in 6.2 mi SSE 21.9 mph - N/A Rain Light Rain Showers
8:30 PM 69.8 °F 64.4 °F 83% 30.15 in 6.2 mi SSE 19.6 mph - N/A Rain Light Rain Showers
9:00 PM 69 °F 64 °F 79% 30.17 in - South 13.8 mph - -   Overcast
9:00 PM 68.0 °F 64.4 °F 88% 30.15 in 5.0 mi South 13.8 mph - N/A Rain Light Rain Showers
9:30 PM 68.0 °F 64.4 °F 88% 30.15 in 6.2 mi South 16.1 mph - N/A Rain Light Rain Showers
10:00 PM 68 °F 64 °F 85% 30.17 in - SSE 13.8 mph - -  
10:00 PM 68.0 °F 64.4 °F 88% 30.15 in 6.2 mi SSE 13.8 mph - N/A Rain Light Rain Showers
10:04 PM 68.0 °F 64.4 °F 88% 30.15 in 6.2 mi SSE 17.3 mph 29.9 mph N/A Rain Light Rain Showers
10:36 PM 69.8 °F 62.6 °F 78% 30.15 in 6.2 mi SSE 19.6 mph 32.2 mph N/A   Scattered Clouds
11:00 PM 68.0 °F 64.4 °F 88% 30.15 in 6.2 mi SSE 12.7 mph - N/A Rain Light Rain Showers
11:30 PM 68.0 °F 64.4 °F 88% 30.15 in 6.2 mi South 13.8 mph - N/A Rain Light Rain Showers